Regional Weather Roundup
Issued by NWS

Home | Current Version | Previous Version | Text Only | Print | Product List | Glossary Off
Versions: 1 2 3 4 5 6 7 8 9 10 11 12 13 14 15 16 17 18 19 20 21 22 23 24 25 26 27 28 29 30 31 32 33 34 35 36 37 38 39 40 41 42 43 44 45 46 47 48 49 50

389
ASUS45 KCYS 280610
RWRWY

WYOMING REGIONAL WEATHER ROUNDUP
NATIONAL WEATHER SERVICE CHEYENNE WY
1200 AM MDT SAT MAY 28 2016

NOTE:  "FAIR" INDICATES FEW OR NO CLOUDS BELOW 12,000 FEET
WITH NO SIGNIFICANT WEATHER AND/OR OBSTRUCTIONS TO VISIBILITY.

WYZ001-280700-
YELLOWSTONE NATIONAL PARK

CITY           SKY/WX    TMP DP  RH WIND       PRES   REMARKS
LK YELLOWSTONE   N/A     36  33  89 NW5       30.06R WCI  32
6HR MIN TEMP:  35; 6HR MAX TEMP:  47; 6HR PCP:  0.08;

W YELLOWSTONE  NOT AVBL

$$
WYZ002>013-054>058-071-098>099-280700-
NORTHERN WYOMING

CITY           SKY/WX    TMP DP  RH WIND       PRES   REMARKS
JACKSON        MOCLDY    46  34  61 SW9       30.00S
CODY           FAIR      48  45  87 E3        29.93R
GREYBULL       MOCLDY    55  48  77 VRB3      29.89R
6HR MIN TEMP:  54; 6HR MAX TEMP:  72; 6HR PCP:  0.07;

WORLAND        CLOUDY    53  48  83 SE6       29.91R
6HR MIN TEMP:  53; 6HR MAX TEMP:  70; 6HR PCP:  0.03;

SHERIDAN       FAIR      49  45  86 W7        29.92S
6HR MIN TEMP:  49; 6HR MAX TEMP:  66;

BUFFALO        FAIR      50  42  74 NW13G26   29.94R
6HR MIN TEMP:  49; 6HR MAX TEMP:  57; 6HR PCP:  0.01;

GILLETTE       FAIR      42  39  89 W3        29.88S
6HR MIN TEMP:  41; 6HR MAX TEMP:  66;

HULETT         FAIR      52  43  71 CALM      29.90S
NEWCASTLE      FAIR      50  41  71 E6        29.91R

$$
WYZ014>020-022>026-101>103-280700-
CENTRAL WYOMING

CITY           SKY/WX    TMP DP  RH WIND       PRES   REMARKS
BIG PINEY      FAIR      38  34  85 NW7       30.03R WCI  33
6HR MIN TEMP:  38; 6HR MAX TEMP:  53; 6HR PCP:  0.06;

PINEDALE       FAIR      36  34  93 NW7       30.03S WCI  30
DUBOIS         FAIR      41  30  65 CALM      29.99S
LANDER         CLOUDY    48  38  68 SW6       29.92R
6HR MIN TEMP:  48; 6HR MAX TEMP:  66; 6HR PCP:  0.01;

RIVERTON       FAIR      49  40  71 E5        29.92F
6HR MIN TEMP:  49; 6HR MAX TEMP:  65; 6HR PCP:  0.04;

CASPER         FAIR      42  38  85 NW7       29.92R
6HR MIN TEMP:  41; 6HR MAX TEMP:  64;

DOUGLAS          N/A    N/A N/A N/A MISG      29.92S

$$
WYZ021-027>030-104>119-280700-
SOUTHERN WYOMING

CITY           SKY/WX    TMP DP  RH WIND       PRES   REMARKS
EVANSTON       CLOUDY    48  35  60 E3        30.06R
6HR MIN TEMP:  47; 6HR MAX TEMP:  58;

KEMMERER         N/A     43  34  70 W6        30.05F
FORT BRIDGER   CLOUDY    46  37  71 W9        30.08R
ROCK SPRINGS   FAIR      45  36  70 SW9       30.02S
6HR MIN TEMP:  44; 6HR MAX TEMP:  59;

DIXON          MOCLDY    47  40  76 CALM      30.07F
RAWLINS        FAIR      44  36  73 S10       30.01F
6HR MIN TEMP:  44; 6HR MAX TEMP:  59;

SARATOGA       CLOUDY    45  37  76 SW8       30.05R
LARAMIE        FAIR      37  35  92 S5        30.01S WCI  33
6HR MIN TEMP:  35; 6HR MAX TEMP:  53; 6HR PCP:  0.01;

CHEYENNE       FAIR      44  38  79 W8        29.95F
6HR MIN TEMP:  43; 6HR MAX TEMP:  54;

TORRINGTON     FAIR      48  45  89 N3        29.89S
6HR MIN TEMP:  45; 6HR MAX TEMP:  57;

PINE BLUFFS    FAIR      37  37 100 CALM      29.94S

$$




USA.gov is the U.S. government's official web portal to all federal, state and local government web resources and services.